Palmdale, CA

12:50 AM PDT on July 28, 2017 (GMT -0700)
Palmdale Af Plant 42

Weather History for KPMD - October, 2012

Change the Weather History Date:

Wednesday, October 31, 2012

  Actual Average Record
Temperature  
Mean Temperature 63 °F 58 °F  
Max Temperature 82 °F 73 °F 85 °F (1977)
Min Temperature 43 °F 43 °F 22 °F (1935)
Degree Days  
Heating Degree Days 2 7  
Month to date heating degree days 76 114  
Since 1 July heating degree days 76 127  
Cooling Degree Days 0 0  
Month to date cooling degree days 118 57  
Year to date cooling degree days 2314 1814  
Growing Degree Days 12 (Base 50)    
Moisture  
Dew Point 24 °F    
Average Humidity 25    
Maximum Humidity 40    
Minimum Humidity 10    
Precipitation  
Precipitation 0.00 in 0.02 in 1.05 in (1987)
Month to date precipitation T 0.60  
Year to date precipitation 1.79 6.45  
Since 1 July precipitation T  
Snow  
Snow 0.00 in - T in (1959)
Month to date snowfall 0.0  
Since 1 July snowfall 0.0  
Since 1 September snowfall 0.0  
Snow Depth 0.00 in    
Sea Level Pressure  
Sea Level Pressure 29.99 in    
Wind  
Wind Speed 6 mph (SW)    
Max Wind Speed 23 mph    
Max Gust Speed 26 mph    
Visibility 10 miles    
Events      
T = Trace of Precipitation, MM = Missing Value Source: NWS Daily Summary

Daily Weather History Graph

Daily Weather History Graph

Search for Another Location

Airport or City:

Trip Planner

Search our weather history database for the weather conditions in past years. The results will help you decide how hot, cold, wet, or windy it might be!

Date:

Astronomy

Oct. 31, 2012 Rise Set
Actual Time 7:12 AM PDT 5:58 PM PDT
Civil Twilight 6:46 AM PDT 6:24 PM PDT
Nautical Twilight 6:16 AM PDT 6:54 PM PDT
Astronomical Twilight 5:47 AM PDT 7:24 PM PDT
Moon 7:18 PM PDT (10/31) 8:53 AM PDT (10/31)
Length of Visible Light 11h 38m
Length of Day
10h 46m
Waning Gibbous, 97% of the Moon is Illuminated
Oct 31
Waning Gibbous
Nov 6
Last Quarter
Nov 13
New
Nov 20
First Quarter
Nov 28
Full

Hourly Weather History & Observations

Time (PDT) Temp. Windchill Dew Point Humidity Pressure Visibility Wind Dir Wind Speed Gust Speed Precip Events Conditions
12:53 AM 52.0 °F - 26.1 °F 37% 30.01 in 10.0 mi South 5.8 mph - N/A   Clear
1:53 AM 50.0 °F - 26.1 °F 39% 30.00 in 10.0 mi SSW 5.8 mph - N/A   Clear
2:53 AM 50.0 °F - 24.1 °F 36% 29.99 in 10.0 mi South 5.8 mph - N/A   Clear
3:53 AM 50.0 °F - 23.0 °F 35% 29.98 in 10.0 mi West 3.5 mph - N/A   Clear
4:53 AM 45.0 °F 42.6 °F 21.9 °F 40% 29.99 in 10.0 mi WNW 4.6 mph - N/A   Clear
5:53 AM 46.0 °F - 21.0 °F 37% 30.00 in 10.0 mi Calm Calm - N/A   Clear
6:53 AM 46.9 °F - 21.9 °F 37% 30.02 in 10.0 mi Calm Calm - N/A   Clear
7:53 AM 48.0 °F - 21.9 °F 36% 30.04 in 10.0 mi Calm Calm - N/A   Clear
8:53 AM 53.1 °F - 21.9 °F 30% 30.05 in 10.0 mi Calm Calm - N/A   Clear
9:53 AM 60.1 °F - 21.9 °F 23% 30.06 in 10.0 mi North 3.5 mph - N/A   Clear
10:53 AM 66.0 °F - 21.0 °F 18% 30.04 in 10.0 mi Calm Calm - N/A   Clear
11:53 AM 73.4 °F - 23.0 °F 15% 30.06 in 10.0 mi Variable 3.5 mph - N/A   Clear
12:53 PM 77.0 °F - 21.0 °F 12% 29.98 in 10.0 mi ENE 3.5 mph - N/A   Clear
1:53 PM 80.1 °F - 19.9 °F 11% 29.95 in 10.0 mi Variable 4.6 mph - N/A   Clear
2:53 PM 80.1 °F - 21.0 °F 11% 29.93 in 10.0 mi WSW 15.0 mph - N/A   Clear
3:53 PM 79.0 °F - 21.0 °F 12% 29.93 in 10.0 mi WSW 17.3 mph 25.3 mph N/A   Clear
4:53 PM 77.0 °F - 24.1 °F 14% 29.94 in 10.0 mi WSW 21.9 mph - N/A   Clear
5:53 PM 71.6 °F - 28.4 °F 20% 29.97 in 10.0 mi WSW 11.5 mph - N/A   Clear
6:53 PM 68.0 °F - 33.1 °F 27% 29.96 in 10.0 mi SW 17.3 mph - N/A   Clear
7:53 PM 66.0 °F - 27.0 °F 23% 29.97 in 10.0 mi SSW 8.1 mph - N/A   Clear
8:53 PM 66.0 °F - 24.1 °F 20% 29.96 in 10.0 mi SW 4.6 mph - N/A   Clear
9:53 PM 63.0 °F - 24.1 °F 23% 29.96 in 10.0 mi Calm Calm - N/A   Clear
10:53 PM 53.1 °F - 27.0 °F 37% 29.97 in 10.0 mi South 4.6 mph - N/A   Clear
11:53 PM 63.0 °F - 25.0 °F 24% 29.96 in 10.0 mi West 3.5 mph - N/A   Clear